Weather History for Roosevelt Roads, PR

Change the Weather History Date:

Wednesday, August 20, 2014

  Actual Average Record
Temperature  
Mean Temperature 83 °F -  
Max Temperature 88 °F 86 °F 91 °F (2002)
Min Temperature 78 °F 73 °F 77 °F (1998)
Cooling Degree Days 18    
Growing Degree Days 33 (Base 50)    
Moisture  
Dew Point 76 °F    
Average Humidity 80    
Maximum Humidity 87    
Minimum Humidity 67    
Precipitation  
Precipitation 0.00 in - - ()
Sea Level Pressure  
Sea Level Pressure 30.02 in    
Wind  
Wind Speed 9 mph (ENE)    
Max Wind Speed 13 mph    
Max Gust Speed 21 mph    
Visibility 10 miles    
Events      
Averages and records for this station are not official NWS values.
T = Trace of Precipitation, MM = Missing Value Source: NWS Daily Summary

Daily Weather History Graph

Daily Weather History Graph

Search for Another Location

Airport:

Trip Planner

Search our weather history database for the weather conditions in past years. The results will help you decide how hot, cold, wet, or windy it might be!

Date:

Astronomy

Aug. 20, 2014 Rise Set
Actual Time 6:05 AM AST 6:45 PM AST
Civil Twilight 5:43 AM AST 7:08 PM AST
Nautical Twilight 5:16 AM AST 7:34 PM AST
Astronomical Twilight 4:50 AM AST 8:01 PM AST
Moon 1:57 AM AST (8/20) 3:13 PM AST (8/20)
Length of Visible Light 13h 25m
Length of Day
12h 40m
Waning Crescent, 21% of the Moon is Illuminated
Aug 20
Waning Crescent
Aug 25
New
Sep 2
First Quarter
Sep 8
Full
Sep 15
Last Quarter

Hourly Weather History & Observations

Time (AST) Temp. Heat Index Dew Point Humidity Pressure Visibility Wind Dir Wind Speed Gust Speed Precip Events Conditions
12:53 AM 78.1 °F - 73.9 °F 87% 30.01 in 10.0 mi ENE 5.8 mph - 0.00 in   Partly Cloudy
1:53 AM 81.0 °F 87.3 °F 75.9 °F 85% 30.00 in 10.0 mi ENE 9.2 mph - N/A   Scattered Clouds
2:06 AM - - - N/A% - - North - - N/A   Unknown
2:20 AM 81.0 °F 87.3 °F 75.9 °F 85% 29.99 in 10.0 mi ENE 10.4 mph - N/A   Mostly Cloudy
2:28 AM 81.0 °F 87.3 °F 75.9 °F 85% 29.99 in 10.0 mi ENE 9.2 mph - N/A   Scattered Clouds
2:35 AM 81.0 °F 87.3 °F 75.9 °F 85% 29.99 in 10.0 mi ENE 9.2 mph - N/A   Mostly Cloudy
2:53 AM 78.1 °F - 73.0 °F 84% 30.00 in 10.0 mi NE 11.5 mph - N/A   Mostly Cloudy
3:21 AM 79.0 °F - 73.9 °F 84% 29.99 in 10.0 mi NNE 5.8 mph - N/A   Mostly Cloudy
3:29 AM 79.0 °F - 73.9 °F 84% 29.99 in 10.0 mi NNE 6.9 mph - N/A   Scattered Clouds
3:53 AM 81.0 °F 87.3 °F 75.9 °F 85% 30.00 in 10.0 mi NE 6.9 mph - N/A   Clear
4:26 AM 81.0 °F 87.3 °F 75.9 °F 85% 29.98 in 10.0 mi ENE 11.5 mph - N/A   Mostly Cloudy
4:43 AM 82.0 °F 89.4 °F 75.9 °F 82% 29.99 in 10.0 mi ENE 10.4 mph - N/A   Mostly Cloudy
4:53 AM 82.0 °F 88.6 °F 75.0 °F 79% 29.99 in 10.0 mi ENE 10.4 mph - N/A   Scattered Clouds
5:53 AM 81.0 °F 86.7 °F 75.0 °F 82% 30.01 in 10.0 mi ENE 6.9 mph - N/A   Scattered Clouds
6:53 AM 82.0 °F 88.6 °F 75.0 °F 79% 30.01 in 10.0 mi ENE 10.4 mph - N/A   Mostly Cloudy
7:13 AM 82.0 °F 88.6 °F 75.0 °F 79% 30.02 in 10.0 mi East 11.5 mph 17.3 mph N/A   Mostly Cloudy
7:53 AM 82.9 °F 90.8 °F 75.9 °F 79% 30.02 in 10.0 mi ENE 12.7 mph 17.3 mph N/A   Scattered Clouds
8:53 AM 82.9 °F 90.8 °F 75.9 °F 79% 30.04 in 10.0 mi ENE 12.7 mph - N/A   Clear
9:53 AM 84.9 °F 95.3 °F 77.0 °F 77% 30.05 in 10.0 mi East 10.4 mph 18.4 mph N/A   Partly Cloudy
10:53 AM 84.9 °F 93.3 °F 75.0 °F 72% 30.05 in 10.0 mi ENE 11.5 mph 20.7 mph N/A   Partly Cloudy
11:53 AM 87.1 °F 99.8 °F 78.1 °F 74% 30.04 in 10.0 mi East 9.2 mph - N/A   Scattered Clouds
12:53 PM 88.0 °F 98.5 °F 75.9 °F 67% 30.03 in 10.0 mi ENE 9.2 mph - N/A   Clear
1:53 PM 88.0 °F 100.2 °F 77.0 °F 70% 30.02 in 10.0 mi NE 9.2 mph - N/A   Clear
2:53 PM 87.1 °F 97.3 °F 75.9 °F 69% 30.01 in 10.0 mi ENE 9.2 mph - N/A   Scattered Clouds
3:53 PM 86.0 °F 96.0 °F 75.9 °F 72% 30.00 in 10.0 mi ENE 8.1 mph - N/A   Scattered Clouds
4:53 PM 82.9 °F 90.2 °F 75.0 °F 77% 30.01 in 10.0 mi NE 6.9 mph - N/A   Overcast
5:53 PM 82.9 °F 90.8 °F 75.9 °F 79% 30.02 in 10.0 mi ENE 8.1 mph - 0.00 in   Mostly Cloudy
6:51 PM 82.4 °F 89.5 °F 75.2 °F 79% 30.03 in 10.0 mi ENE 8.1 mph - N/A   Mostly Cloudy
6:53 PM 82.9 °F 90.8 °F 75.9 °F 79% 30.03 in 10.0 mi ENE 8.1 mph - N/A   Mostly Cloudy
7:53 PM 82.9 °F 90.8 °F 75.9 °F 79% 30.05 in 10.0 mi ENE 8.1 mph - N/A   Mostly Cloudy
8:25 PM 82.0 °F 89.4 °F 75.9 °F 82% 30.06 in 10.0 mi ENE 8.1 mph - N/A   Scattered Clouds
8:53 PM 82.9 °F 90.8 °F 75.9 °F 79% 30.07 in 10.0 mi ENE 9.2 mph - N/A   Partly Cloudy
9:53 PM 82.9 °F 90.8 °F 75.9 °F 79% 30.09 in 10.0 mi NE 10.4 mph - N/A   Mostly Cloudy
10:53 PM 82.0 °F 89.4 °F 75.9 °F 82% 30.08 in 10.0 mi NE 9.2 mph - N/A   Clear
11:53 PM 82.0 °F 89.4 °F 75.9 °F 82% 30.06 in 10.0 mi NE 8.1 mph - N/A   Scattered Clouds